Chicopee, MA

6:40 PM EDT on April 25, 2017 (GMT -0400)
Westover Air Reserve Base / Metropolitan Airport

Weather History for KCEF - June, 2013

Change the Weather History Date:

Friday, June 21, 2013

  Actual Average Record
Temperature  
Mean Temperature 70 °F -  
Max Temperature 84 °F 78 °F 95 °F (2012)
Min Temperature 56 °F 57 °F 44 °F (2014)
Cooling Degree Days 5    
Growing Degree Days 20 (Base 50)    
Moisture  
Dew Point 59 °F    
Average Humidity 68    
Maximum Humidity 97    
Minimum Humidity 36    
Precipitation  
Precipitation 0.01 in - - ()
Sea Level Pressure  
Sea Level Pressure 30.25 in    
Wind  
Wind Speed 6 mph (South)    
Max Wind Speed 10 mph    
Max Gust Speed -    
Visibility 10 miles    
Events      
Averages and records for this station are not official NWS values.
T = Trace of Precipitation, MM = Missing Value Source: NWS Daily Summary

Daily Weather History Graph

Daily Weather History Graph

Search for Another Location

Airport or City:

Trip Planner

Search our weather history database for the weather conditions in past years. The results will help you decide how hot, cold, wet, or windy it might be!

Date:

Astronomy

Jun. 21, 2013 Rise Set
Actual Time 5:13 AM EDT 8:29 PM EDT
Civil Twilight 4:39 AM EDT 9:04 PM EDT
Nautical Twilight 3:54 AM EDT 9:49 PM EDT
Astronomical Twilight 3:00 AM EDT 10:43 PM EDT
Moon 6:36 PM EDT (6/21) 3:28 AM EDT (6/21)
Length of Visible Light 16h 25m
Length of Day
15h 16m
Waxing Gibbous, 95% of the Moon is Illuminated
Jun 21
Waxing Gibbous
Jun 23
Full
Jun 30
Last Quarter
Jul 8
New
Jul 15
First Quarter

Hourly Weather History & Observations

Time (EDT) Temp. Heat Index Dew Point Humidity Pressure Visibility Wind Dir Wind Speed Gust Speed Precip Events Conditions
12:58 AM 60.1 °F - 54.7 °F 82% 30.27 in 10.0 mi SSE 8.1 mph - N/A   Clear
1:58 AM 59.2 °F - 54.7 °F 85% 30.27 in 10.0 mi South 5.8 mph - N/A   Clear
2:58 AM 58.3 °F - 54.9 °F 88% 30.25 in 10.0 mi SSE 6.9 mph - N/A   Clear
3:58 AM 57.4 °F - 54.9 °F 91% 30.26 in 10.0 mi South 5.8 mph - N/A   Clear
4:58 AM 56.8 °F - 55.0 °F 94% 30.26 in 10.0 mi SSE 4.6 mph - N/A   Clear
5:58 AM 56.1 °F - 55.2 °F 97% 30.27 in 10.0 mi SSE 2.3 mph - N/A   Clear
6:58 AM 61.5 °F - 56.8 °F 85% 30.28 in 10.0 mi Variable 4.6 mph - N/A   Clear
7:58 AM 64.8 °F - 57.4 °F 77% 30.28 in 10.0 mi SSW 9.2 mph - N/A   Clear
8:58 AM 68.4 °F - 58.8 °F 71% 30.28 in 10.0 mi South 6.9 mph - N/A   Clear
9:55 AM 71.6 °F - 60.8 °F 69% 30.27 in - Variable 5.8 mph - N/A   Clear
9:58 AM 71.8 °F - 60.1 °F 67% 30.27 in 10.0 mi Variable 5.8 mph - N/A   Clear
10:58 AM 73.9 °F - 61.7 °F 65% 30.27 in 10.0 mi Variable 6.9 mph - N/A   Clear
11:58 AM 76.8 °F - 62.1 °F 60% 30.27 in 10.0 mi Variable 4.6 mph - N/A   Clear
12:58 PM 79.3 °F - 63.3 °F 58% 30.27 in 10.0 mi SSW 8.1 mph - 0.01 in   Partly Cloudy
1:58 PM 80.4 °F 81.8 °F 63.5 °F 56% 30.24 in 10.0 mi SSE 4.6 mph - N/A   Partly Cloudy
2:58 PM 80.4 °F 81.8 °F 63.5 °F 56% 30.23 in 10.0 mi SSW 8.1 mph - N/A   Scattered Clouds
3:58 PM 84.2 °F 85.4 °F 63.7 °F 50% 30.23 in 10.0 mi South 6.9 mph - N/A   Mostly Cloudy
4:58 PM 84.6 °F 83.5 °F 56.5 °F 38% 30.21 in 10.0 mi WNW 8.1 mph - N/A   Clear
5:58 PM 84.2 °F 82.9 °F 54.5 °F 36% 30.21 in 10.0 mi Variable 4.6 mph - N/A   Partly Cloudy
6:58 PM 81.9 °F 82.2 °F 59.7 °F 47% 30.22 in 10.0 mi WSW 10.4 mph - N/A   Clear
7:58 PM 78.4 °F - 61.3 °F 56% 30.23 in 10.0 mi WSW 8.1 mph - N/A   Clear
8:41 PM 75.2 °F - 62.6 °F 65% 30.21 in 10.0 mi SSE 3.5 mph - N/A   Clear
8:42 PM 75.2 °F - 62.6 °F 65% 30.21 in 10.0 mi SE 3.5 mph - N/A   Light Drizzle
8:58 PM 71.6 °F - 62.2 °F 72% 30.23 in 10.0 mi East 3.5 mph - N/A   Clear
9:58 PM 70.9 °F - 62.2 °F 74% 30.24 in 10.0 mi SSE 5.8 mph - N/A   Partly Cloudy
10:58 PM 70.9 °F - 59.7 °F 68% 30.25 in 10.0 mi South 8.1 mph - N/A   Mostly Cloudy
11:58 PM 68.2 °F - 57.7 °F 69% 30.25 in 10.0 mi South 8.1 mph - N/A   Partly Cloudy